When you browse on this site, cookies collect data to enhance your experience and personalize the content and advertising you see.
Visit our Privacy Policy to learn more. By continuing to use the site, you agree to this use of cookies and data.
  • en France
  • Liste des pays
  • À 7 jours
  • Température de l'eau
  • Carte météo
  • Widgets météo
  • user-avatar
    Se connecter

    Météo par heure à Buna

    Ce jour, 31 Mai, Dimanche

    Heure Température Précipitation Vent Pression Humidité
    00:00 +11°C° 0.2 mm 1 m/s 718 mmHg 88%
    01:00 +11°C° 0.2 mm 1 m/s 718 mmHg 88%
    02:00 +11°C° 0 mm 1 m/s 718 mmHg 88%
    03:00 +10°C° 0 mm 1 m/s 718 mmHg 88%
    04:00 +10°C° 0 mm 1 m/s 718 mmHg 87%
    05:00 +11°C° 0 mm 1 m/s 718 mmHg 84%
    06:00 +12°C° 0 mm 1 m/s 718 mmHg 80%
    07:00 +13°C° 0 mm 1 m/s 718 mmHg 77%
    08:00 +15°C° 0 mm 1 m/s 718 mmHg 69%
    09:00 +16°C° 0 mm 1 m/s 718 mmHg 62%
    10:00 +19°C° 0 mm 1 m/s 719 mmHg 54%
    11:00 +19°C° 0.1 mm 1 m/s 718 mmHg 52%
    12:00 +19°C° 0.1 mm 2 m/s 718 mmHg 50%
    13:00 +19°C° 0.1 mm 2 m/s 718 mmHg 48%
    14:00 +19°C° 0.7 mm 2 m/s 717 mmHg 54%
    15:00 +18°C° 0.7 mm 2 m/s 717 mmHg 60%
    16:00 +17°C° 0.7 mm 3 m/s 717 mmHg 66%
    17:00 +16°C° 0.7 mm 2 m/s 717 mmHg 72%
    18:00 +15°C° 0.7 mm 1 m/s 717 mmHg 77%
    19:00 +13°C° 0.7 mm 1 m/s 717 mmHg 83%
    20:00 +12°C° 0.1 mm 1 m/s 717 mmHg 84%
    21:00 +12°C° 0.1 mm 1 m/s 717 mmHg 85%
    22:00 +10°C° 0.1 mm 2 m/s 717 mmHg 86%
    23:00 +9°C° 0 mm 2 m/s 717 mmHg 86%

    Demain, 1 Juin, Lundi

    Heure Température Précipitation Vent Pression Humidité
    00:00 +9°C° 0 mm 2 m/s 717 mmHg 87%
    01:00 +8°C° 0 mm 2 m/s 716 mmHg 87%
    02:00 +8°C° 0 mm 2 m/s 716 mmHg 87%
    03:00 +8°C° 0 mm 2 m/s 716 mmHg 87%
    04:00 +8°C° 0 mm 2 m/s 716 mmHg 87%
    05:00 +9°C° 0 mm 2 m/s 716 mmHg 84%
    06:00 +12°C° 0 mm 2 m/s 716 mmHg 80%
    07:00 +13°C° 0 mm 2 m/s 717 mmHg 77%
    08:00 +15°C° 0 mm 2 m/s 717 mmHg 72%
    09:00 +16°C° 0 mm 2 m/s 718 mmHg 66%
    10:00 +17°C° 0 mm 2 m/s 718 mmHg 61%
    11:00 +18°C° 0 mm 3 m/s 718 mmHg 61%
    12:00 +18°C° 0 mm 3 m/s 718 mmHg 61%
    13:00 +18°C° 0 mm 4 m/s 718 mmHg 61%
    14:00 +18°C° 0 mm 4 m/s 718 mmHg 61%
    15:00 +18°C° 0 mm 3 m/s 718 mmHg 61%
    16:00 +18°C° 0 mm 3 m/s 718 mmHg 60%
    17:00 +17°C° 0 mm 3 m/s 717 mmHg 67%
    18:00 +14°C° 0 mm 3 m/s 717 mmHg 73%
    19:00 +14°C° 0 mm 2 m/s 717 mmHg 79%
    20:00 +13°C° 0 mm 2 m/s 717 mmHg 81%
    21:00 +12°C° 0 mm 2 m/s 718 mmHg 83%
    22:00 +10°C° 0 mm 2 m/s 718 mmHg 85%
    23:00 +10°C° 0 mm 2 m/s 717 mmHg 85%

    Après-demain, 2 Juin, Mardi

    Heure Température Précipitation Vent Pression Humidité
    00:00 +9°C° 0 mm 2 m/s 717 mmHg 86%
    01:00 +9°C° 0 mm 2 m/s 717 mmHg 86%
    02:00 +9°C° 0 mm 2 m/s 717 mmHg 86%
    03:00 +9°C° 0 mm 2 m/s 717 mmHg 85%
    04:00 +8°C° 0 mm 2 m/s 717 mmHg 85%
    05:00 +10°C° 0 mm 2 m/s 717 mmHg 80%
    06:00 +13°C° 0 mm 2 m/s 717 mmHg 75%
    07:00 +15°C° 0 mm 2 m/s 718 mmHg 70%
    08:00 +16°C° 0 mm 2 m/s 718 mmHg 64%
    09:00 +18°C° 0 mm 2 m/s 718 mmHg 58%
    10:00 +19°C° 0 mm 2 m/s 718 mmHg 52%
    11:00 +19°C° 0 mm 2 m/s 718 mmHg 52%
    12:00 +19°C° 0 mm 2 m/s 718 mmHg 52%
    13:00 +19°C° 0 mm 2 m/s 718 mmHg 51%
    14:00 +19°C° 0 mm 2 m/s 717 mmHg 53%
    15:00 +19°C° 0 mm 2 m/s 717 mmHg 55%
    16:00 +19°C° 0 mm 2 m/s 717 mmHg 57%
    17:00 +18°C° 0 mm 1 m/s 716 mmHg 63%
    18:00 +16°C° 0 mm 1 m/s 716 mmHg 69%
    19:00 +14°C° 0 mm 1 m/s 716 mmHg 76%
    20:00 +13°C° 0 mm 1 m/s 716 mmHg 77%
    21:00 +13°C° 0 mm 2 m/s 716 mmHg 79%
    22:00 +12°C° 0 mm 2 m/s 716 mmHg 80%
    23:00 +10°C° 0 mm 2 m/s 715 mmHg 81%

    3 Juin, Mercredi

    Heure Température Précipitation Vent Pression Humidité
    00:00 +9°C° 0 mm 2 m/s 715 mmHg 82%
    01:00 +9°C° 0 mm 2 m/s 715 mmHg 83%
    02:00 +9°C° 0 mm 2 m/s 714 mmHg 82%
    03:00 +8°C° 0 mm 2 m/s 714 mmHg 81%
    04:00 +8°C° 0 mm 2 m/s 714 mmHg 80%
    05:00 +10°C° 0 mm 2 m/s 714 mmHg 74%
    06:00 +13°C° 0 mm 1 m/s 714 mmHg 69%
    07:00 +15°C° 0 mm 1 m/s 714 mmHg 63%
    08:00 +18°C° 0 mm 1 m/s 714 mmHg 58%
    09:00 +19°C° 0 mm 1 m/s 715 mmHg 54%
    10:00 +21°C° 0 mm 1 m/s 715 mmHg 49%
    11:00 +20°C° 0 mm 2 m/s 715 mmHg 50%
    12:00 +20°C° 0 mm 3 m/s 714 mmHg 52%
    13:00 +20°C° 0 mm 3 m/s 714 mmHg 54%
    14:00 +20°C° 0 mm 3 m/s 714 mmHg 56%
    15:00 +19°C° 0 mm 3 m/s 714 mmHg 59%
    16:00 +19°C° 0 mm 3 m/s 714 mmHg 62%
    17:00 +18°C° 0 mm 2 m/s 714 mmHg 69%
    18:00 +16°C° 0 mm 2 m/s 714 mmHg 75%
    19:00 +15°C° 0 mm 1 m/s 714 mmHg 82%
    20:00 +14°C° 0 mm 1 m/s 714 mmHg 84%
    21:00 +13°C° 0 mm 1 m/s 715 mmHg 87%
    22:00 +13°C° 0 mm 1 m/s 715 mmHg 89%
    23:00 +13°C° 0 mm 1 m/s 715 mmHg 89%

    4 Juin, Jeudi

    Heure Température Précipitation Vent Pression Humidité
    00:00 +12°C° 0 mm 1 m/s 715 mmHg 90%
    01:00 +12°C° 0 mm 1 m/s 715 mmHg 90%
    02:00 +12°C° 0 mm 1 m/s 715 mmHg 89%
    03:00 +12°C° 0 mm 1 m/s 715 mmHg 89%
    04:00 +12°C° 0 mm 1 m/s 715 mmHg 88%
    05:00 +13°C° 0 mm 1 m/s 715 mmHg 84%
    06:00 +14°C° 0 mm 1 m/s 716 mmHg 81%
    07:00 +15°C° 0 mm 1 m/s 716 mmHg 77%
    08:00 +18°C° 0 mm 1 m/s 716 mmHg 74%
    09:00 +19°C° 0 mm 1 m/s 716 mmHg 71%
    10:00 +20°C° 0 mm 1 m/s 717 mmHg 68%
    11:00 +19°C° 0.1 mm 2 m/s 717 mmHg 69%
    12:00 +20°C° 0.1 mm 2 m/s 717 mmHg 70%
    13:00 +20°C° 0.1 mm 3 m/s 717 mmHg 71%
    14:00 +20°C° 0.2 mm 3 m/s 717 mmHg 72%
    15:00 +19°C° 0.2 mm 2 m/s 717 mmHg 74%
    16:00 +19°C° 0.2 mm 2 m/s 717 mmHg 75%
    17:00 +18°C° 0.1 mm 2 m/s 717 mmHg 80%
    18:00 +18°C° 0.1 mm 1 m/s 716 mmHg 86%
    19:00 +16°C° 0.1 mm 1 m/s 716 mmHg 91%
    20:00 +15°C° 0 mm 1 m/s 717 mmHg 92%
    21:00 +14°C° 0 mm 1 m/s 717 mmHg 93%
    22:00 +14°C° 0 mm 1 m/s 717 mmHg 93%
    23:00 +13°C° 0 mm 1 m/s 717 mmHg 93%

    5 Juin, Vendredi

    Heure Température Précipitation Vent Pression Humidité
    00:00 +13°C° 0 mm 1 m/s 717 mmHg 93%
    01:00 +13°C° 0 mm 1 m/s 717 mmHg 93%
    02:00 +13°C° 0 mm 1 m/s 717 mmHg 92%
    03:00 +13°C° 0 mm 1 m/s 717 mmHg 91%
    04:00 +13°C° 0 mm 1 m/s 717 mmHg 90%
    05:00 +15°C° 0 mm 1 m/s 717 mmHg 86%
    06:00 +16°C° 0 mm 1 m/s 717 mmHg 81%
    07:00 +19°C° 0 mm 1 m/s 717 mmHg 76%
    08:00 +19°C° 0 mm 2 m/s 717 mmHg 72%
    09:00 +21°C° 0 mm 2 m/s 718 mmHg 68%
    10:00 +22°C° 0 mm 3 m/s 718 mmHg 64%
    11:00 +22°C° 0 mm 3 m/s 718 mmHg 64%
    12:00 +24°C° 0 mm 3 m/s 717 mmHg 63%
    13:00 +23°C° 0 mm 4 m/s 717 mmHg 62%
    14:00 +24°C° 0 mm 3 m/s 717 mmHg 62%
    15:00 +24°C° 0 mm 3 m/s 717 mmHg 62%
    16:00 +24°C° 0 mm 3 m/s 717 mmHg 62%
    17:00 +21°C° 0 mm 2 m/s 716 mmHg 68%
    18:00 +21°C° 0 mm 1 m/s 716 mmHg 74%
    19:00 +19°C° 0 mm 1 m/s 716 mmHg 81%
    20:00 +18°C° 0 mm 1 m/s 716 mmHg 81%
    21:00 +18°C° 0 mm 1 m/s 717 mmHg 82%
    22:00 +16°C° 0 mm 2 m/s 717 mmHg 82%
    23:00 +16°C° 0 mm 2 m/s 717 mmHg 82%
    Voir plus